Regional Weather Roundup
Issued by NWS

Home | Current Version | Previous Version | Graphics & Text | Print | Product List | Glossary On
Versions: 1 2 3 4 5 6 7 8 9 10 11 12 13 14 15 16 17 18 19 20 21 22 23 24 25 26 27 28 29 30 31 32 33 34 35 36 37 38 39 40 41 42 43 44 45 46 47 48 49 50
000
ASUS43 KLSX 271607
RWRMO

WEATHER SUMMARY FOR MISSOURI
NATIONAL WEATHER SERVICE SPRINGFIELD MO
1000 AM CST TUE JAN 27 2015

NOTE: "FAIR" INDICATES FEW OR NO CLOUDS BELOW 12,000 FEET WITH NO
       SIGNIFICANT WEATHER AND/OR OBSTRUCTIONS TO VISIBILITY.
       CURRENT SKY AND/OR WEATHER CONDITIONS ARE NOT AVAILABLE FOR
       CHILLICOTHE AND FARMINGTON.

MOZ001>031-035>038-043-044-053-054-271700-
...NORTHERN AND WESTERN MISSOURI...

CITY           SKY/WX    TMP DP  RH WIND       PRES   REMARKS
KANSAS CTY INT MOSUNNY   41  34  76 E7        30.16R
KANSAS C DTWN  SUNNY     43  34  70 E7        30.18R
LEE`S SUMMIT   SUNNY     42  32  67 NE6       30.17R
ST JOSEPH      SUNNY     36  33  89 CALM      30.18R
CHILLICOTHE      N/A     41  33  73 CALM      30.19R
KIRKSVILLE     CLOUDY    35  32  88 NE8       30.17R WCI  29

$$
MOZ066>068-077>081-088>096-101>105-271700-
...SOUTHWEST MISSOURI...

CITY           SKY/WX    TMP DP  RH WIND       PRES   REMARKS
SPRINGFIELD    SUNNY     45  34  65 CALM      30.15R
JOPLIN         SUNNY     47  34  60 VRB3      30.19R

$$
MOZ032>034-039>042-045>050-055>058-069>072-271700-
...CENTRAL MISSOURI...

CITY           SKY/WX    TMP DP  RH WIND       PRES   REMARKS
COLUMBIA       SUNNY     40  33  76 N7        30.16R
JEFFERSON CITY SUNNY     41  33  73 N6        30.18R
ROLLA          SUNNY     40  32  73 N8        30.13R
SEDALIA        SUNNY     42  34  73 N5        30.19R
WHITEMAN AFB   SUNNY     42  34  74 NE6       30.17R
WARRENSBURG    SUNNY     41  34  75 NE3       30.18R
OSAGE BEACH    SUNNY     43  32  65 NE6       30.16R

$$
MOZ051-052-059>065-271700-
...EAST CENTRAL MISSOURI...

CITY           SKY/WX    TMP DP  RH WIND       PRES   REMARKS
ST LOUIS INTL  MOSUNNY   42  34  73 NW6       30.15R
SPIRIT OF STL  MOSUNNY   41  33  73 NW5       30.15R
ST CHARLES     SUNNY     39  34  82 W6        30.15R

$$
MOZ072>076-082>087-097>100-106>115-271700-
...SOUTH CENTRAL AND SOUTHEAST MISSOURI...

CITY           SKY/WX    TMP DP  RH WIND       PRES   REMARKS
CAPE GIRARDEAU MOSUNNY   42  35  76 N14       30.14R
FARMINGTON     CLOUDY    39  32  75 MISG      30.16R
POPLAR BLUFF   MOSUNNY   44  36  73 NW5       30.14R
WEST PLAINS    SUNNY     45  32  60 N10       30.15R

$$


USA.gov is the U.S. government's official web portal to all federal, state and local government web resources and services.